RH
2 2 2 2 2 3 5 5 5 7 11 14 17 21 24 27 29 32 36 39 41 40 39 37 34 32 30 28 27 25 23 21 20 18 16 15 15 14 13 12 12 11 11 10 10 11 11 11 11 11 10 9 9 10 10 10 10 9 9 10 10 11 10 9 8 7 7 4 5 5 5 6 5 6 4 5 6 5 7 7 13 20 20 21 19 23 23 21
4 4 4 4 4 4 5 6 7 9 12 17 22 26 31 35 38 42 44 45 45 44 43 41 39 37 35 32 30 29 27 25 23 21 20 19 18 17 16 15 14 13 12 12 12 12 12 13 13 12 11 10 10 10 11 11 11 10 11 12 11 11 10 9 8 6 6 5 6 5 6 6 4 12 10 13 16 5 8 11 12 17 18 21 22 23 22 19
5 5 5 5 5 5 5 7 9 10 13 18 25 31 37 42 46 49 52 52 50 48 46 45 43 40 38 35 33 31 29 28 26 24 23 22 21 20 19 17 17 15 14 14 14 14 14 14 14 14 13 12 11 10 11 11 12 12 12 13 13 12 10 10 8 7 7 6 7 5 7 7 5 15 14 23 30 8 5 9 11 19 20 24 24 22 20 18
7 7 7 7 6 7 7 7 9 11 13 16 22 30 39 46 50 52 55 56 55 53 50 48 47 44 41 38 36 33 31 29 27 26 25 24 23 22 21 20 19 18 17 17 16 16 15 16 15 15 14 13 12 11 12 12 13 13 14 15 13 13 12 11 10 8 9 7 8 7 8 8 6 10 7 22 39 32 35 26 14 19 19 23 23 18 18 19
8 9 9 8 8 8 8 9 9 11 13 16 19 24 33 42 49 53 56 59 59 58 55 53 52 49 46 43 40 37 34 30 27 27 27 26 25 24 23 22 21 20 19 19 18 17 16 16 16 15 15 14 13 13 13 13 13 14 16 16 15 15 13 12 11 10 10 9 9 9 9 9 7 9 5 13 27 38 61 55 33 26 20 20 18 18 21 24
10 11 11 10 9 9 9 10 11 12 13 15 17 20 27 35 43 49 56 61 62 62 59 57 58 56 52 49 46 42 38 33 28 27 27 27 26 25 24 23 23 22 21 20 19 18 17 17 16 16 15 14 14 14 14 14 15 16 17 16 16 16 14 13 12 12 11 10 10 10 10 10 9 10 8 10 19 28 40 40 33 27 22 21 20 23 27 31
11 13 13 12 11 10 10 11 12 13 13 14 16 18 21 29 38 44 51 58 63 64 63 61 61 61 59 55 50 47 43 38 33 30 28 27 27 26 25 24 23 23 22 21 20 19 18 18 17 16 16 14 15 15 14 15 17 18 18 17 17 16 15 14 13 13 13 12 11 11 11 11 11 11 9 10 19 24 21 19 21 23 24 24 26 30 34 35
13 15 15 15 15 14 13 12 12 12 13 14 15 16 18 23 33 41 45 50 58 63 64 64 64 64 63 58 53 49 46 43 40 35 32 30 29 28 27 25 24 23 22 21 20 20 18 18 18 17 17 15 15 15 14 16 17 18 18 18 17 17 16 15 14 15 14 13 12 12 12 12 12 11 11 11 12 15 16 20 23 25 29 30 32 36 37 36
14 16 17 18 17 17 17 16 14 13 13 13 14 15 16 19 25 36 43 45 50 56 60 63 65 66 64 59 55 50 46 45 44 41 38 34 32 30 29 27 26 24 22 21 20 19 19 18 18 17 17 15 15 15 15 16 17 18 19 18 18 18 17 15 15 16 15 14 13 13 13 12 13 12 12 12 13 14 18 24 27 31 34 35 38 40 38 35
15 17 19 20 20 20 20 20 19 16 14 14 14 14 15 17 19 29 41 46 47 49 53 56 61 64 63 60 55 50 46 43 43 43 42 39 35 33 30 29 27 25 23 21 20 19 18 17 17 16 16 15 16 15 15 16 16 17 18 18 19 19 18 17 17 17 16 15 14 15 15 13 14 14 14 14 14 15 18 23 26 31 35 39 41 40 40 38
13 17 19 22 23 22 22 24 25 22 17 14 14 15 16 16 17 22 35 47 50 49 51 52 56 59 60 58 55 51 47 43 42 41 41 41 39 35 32 30 27 25 23 21 20 19 18 17 16 16 15 15 15 14 15 16 15 16 18 18 20 20 19 19 18 18 17 16 16 16 16 15 15 15 15 16 16 15 16 19 22 26 31 36 39 40 40 35
12 14 17 19 21 22 24 28 30 28 21 15 14 15 16 17 17 18 28 45 53 53 55 56 57 59 59 57 54 51 48 45 44 41 39 39 38 37 33 30 27 25 23 21 19 18 18 17 16 15 14 14 14 14 14 15 15 16 17 18 20 20 20 19 19 19 18 18 17 17 17 17 17 17 15 15 16 16 16 17 18 22 26 30 34 35 34 29
12 13 14 15 17 20 27 31 33 32 26 19 15 15 17 18 19 18 23 40 53 56 59 60 62 63 62 60 56 53 49 46 45 41 40 39 38 37 33 30 27 24 22 20 19 18 17 16 15 14 13 13 13 13 13 13 15 15 16 18 19 20 20 19 19 19 19 19 18 18 18 18 18 18 17 17 17 17 17 18 19 20 23 25 28 29 27 25
12 13 14 15 17 21 28 32 33 34 32 25 20 18 18 19 20 19 21 35 51 59 60 62 64 65 65 63 59 57 53 49 46 42 42 42 39 37 33 29 25 22 21 19 18 17 15 14 13 13 12 13 12 12 13 13 14 14 15 17 18 20 20 19 19 19 19 19 19 19 18 22 23 18 18 18 17 18 18 18 19 19 20 21 23 24 23 22
13 14 15 16 17 21 28 34 34 34 34 32 26 23 21 21 21 20 22 33 49 60 63 64 65 66 68 64 60 59 56 53 50 46 45 43 40 36 31 26 23 21 19 17 16 15 14 13 12 12 11 11 12 12 13 12 13 13 14 16 17 20 20 19 19 19 20 19 20 20 19 26 28 20 19 19 17 19 19 19 19 18 20 20 20 21 22 21
13 14 16 17 19 21 26 32 35 35 35 35 32 29 27 24 23 22 22 31 49 61 63 65 66 67 68 66 62 59 56 53 50 49 47 42 38 32 26 23 20 18 17 15 14 12 11 11 11 11 11 11 11 12 13 12 12 12 13 15 16 19 20 20 20 20 20 19 20 20 20 25 25 19 20 20 19 19 19 19 19 19 20 20 21 21 21 21
13 15 16 18 20 21 24 29 35 37 37 36 35 35 33 30 28 28 27 33 50 63 65 65 67 68 66 62 59 57 55 52 50 48 45 40 33 26 21 19 17 16 15 13 12 11 10 10 10 10 10 10 11 12 13 12 12 12 12 14 15 17 20 20 20 20 20 20 20 21 21 22 21 20 21 20 20 20 20 20 19 20 21 20 21 21 21 21
14 15 16 17 20 21 24 27 32 39 40 38 36 38 39 37 34 34 37 45 56 65 67 67 68 67 63 58 55 54 53 50 48 45 41 35 28 22 19 16 15 15 14 12 11 10 10 10 11 11 11 10 11 12 14 13 13 12 12 13 14 16 19 20 21 20 20 21 20 20 21 21 21 20 21 20 20 20 20 21 20 20 20 20 21 20 20 20
14 15 15 17 19 21 24 25 29 37 42 42 38 38 41 42 39 36 40 50 59 63 64 63 64 62 59 56 53 52 49 48 45 40 36 30 23 19 17 15 15 15 13 12 11 10 10 11 11 11 11 11 12 14 15 14 13 12 13 13 14 16 19 20 21 20 20 21 21 21 21 21 21 20 20 20 20 21 21 20 21 21 20 20 20 20 20 20
14 14 14 16 18 21 22 24 26 31 40 45 41 39 40 42 42 40 43 50 57 62 62 61 59 58 57 55 52 48 45 42 39 34 29 24 20 17 16 15 15 14 13 11 11 11 10 10 11 11 12 11 13 15 14 13 13 13 12 13 14 15 18 20 20 20 21 21 20 20 21 20 20 20 21 21 20 21 21 20 20 20 20 20 20 20 20 20
14 13 13 14 16 19 21 22 24 27 34 44 47 43 40 40 41 42 45 48 54 60 62 62 59 57 57 54 50 46 43 39 33 27 23 20 19 17 16 16 15 15 14 12 11 11 10 10 11 11 11 11 12 13 14 14 14 13 13 14 14 15 18 19 19 20 20 20 20 20 20 20 20 20 19 20 21 20 19 20 20 19 19 20 20 21 20 20
12 12 12 12 13 16 19 20 22 24 27 36 47 50 45 40 40 42 43 44 48 53 55 57 57 56 57 55 49 44 39 35 28 21 19 19 18 17 17 15 16 16 14 13 12 10 10 10 10 10 11 11 11 12 14 16 15 14 14 14 15 17 17 17 18 19 19 19 20 19 19 19 19 20 20 19 18 19 19 18 18 17 16 18 21 22 21 22
11 11 10 11 11 13 15 17 19 22 24 29 40 52 52 45 40 40 42 41 43 47 48 48 50 52 55 54 48 42 34 28 23 19 17 18 18 17 18 16 16 16 15 14 12 11 10 9 9 9 10 10 11 12 13 14 16 16 15 15 16 16 16 19 19 17 18 18 18 18 19 20 20 18 17 19 18 17 18 16 14 14 14 18 22 23 24 27
7 7 8 9 10 11 12 14 15 17 21 25 32 45 52 51 46 41 41 40 39 43 44 41 44 50 51 48 42 36 30 23 19 17 17 18 19 18 18 17 16 16 16 15 13 12 11 9 9 8 9 10 10 11 11 12 14 15 15 16 17 16 17 20 19 16 17 17 18 18 16 17 20 20 16 14 17 15 14 14 12 13 15 18 22 25 30 33
12 11 11 11 11 11 12 12 13 14 16 20 27 37 45 49 51 47 43 42 40 42 42 38 39 45 47 45 37 30 28 23 17 15 18 19 18 19 18 17 18 18 17 16 14 13 11 11 10 9 9 9 9 10 10 10 11 12 14 14 15 17 16 17 17 16 16 16 15 14 19 23 19 20 22 15 14 15 14 16 17 18 20 22 28 34 36 39
28 27 25 24 22 19 16 14 14 14 14 15 20 30 38 42 48 52 49 46 43 41 42 40 37 38 40 41 37 31 26 22 18 15 18 19 19 20 19 19 19 19 19 18 16 14 13 12 11 11 10 8 9 9 8 9 9 9 10 11 13 13 13 15 13 13 17 21 22 15 25 45 35 21 26 22 17 22 24 28 30 31 34 37 43 48 51 58
38 37 36 35 33 31 27 21 18 17 16 16 16 22 31 35 40 47 51 53 49 43 42 42 40 38 39 37 36 33 26 21 20 18 18 20 21 21 20 21 21 20 21 20 19 17 15 14 12 12 11 10 9 8 8 8 7 12 12 10 11 10 12 13 9 17 27 32 38 25 18 49 56 34 30 32 29 33 35 39 45 47 50 54 60 66 72 74
40 40 40 39 38 38 36 31 27 22 17 17 17 18 25 32 37 42 49 56 52 46 42 42 42 41 41 40 39 38 31 25 22 20 21 20 21 22 21 22 22 22 22 20 21 21 18 16 15 13 12 12 11 9 10 7 8 17 14 9 10 9 11 9 10 26 29 23 38 32 11 39 66 48 39 44 40 42 43 44 53 58 60 65 74 79 76 70
42 42 42 41 41 40 40 39 35 29 22 19 17 17 21 26 33 40 47 51 51 50 48 45 47 46 43 42 42 42 38 33 27 23 23 22 22 23 24 24 23 22 22 21 23 23 19 17 16 15 13 12 12 10 10 8 11 17 12 8 10 10 10 9 17 34 25 13 35 44 24 39 69 60 52 55 48 46 46 45 53 60 65 70 75 74 67 63
39 40 40 40 40 40 41 41 40 36 31 25 20 18 19 23 31 40 44 45 47 51 51 49 51 53 51 45 43 44 43 39 34 28 25 24 25 25 26 26 24 23 23 21 21 21 19 18 18 18 15 14 12 12 12 10 12 14 10 9 10 12 11 9 18 29 27 20 30 47 37 36 67 73 60 57 51 49 52 51 53 58 64 69 68 67 64 63
33 33 34 35 36 37 38 39 42 42 38 32 26 22 21 24 31 36 37 39 43 47 51 49 46 52 60 57 48 44 44 44 42 38 31 27 27 28 28 27 26 26 25 23 22 21 20 20 20 19 18 17 14 12 13 12 12 12 10 12 15 16 11 17 28 20 21 35 39 51 44 30 60 80 64 58 55 54 61 61 60 62 65 68 67 67 67 67
25 25 26 28 30 31 32 34 39 42 42 39 32 27 26 27 27 27 32 39 41 44 49 50 46 46 55 64 62 51 46 45 44 46 43 35 31 30 30 29 29 28 27 26 25 24 24 23 23 22 20 19 17 16 15 12 14 12 12 17 27 35 25 24 41 29 19 41 50 54 44 27 50 69 61 64 64 60 63 64 65 67 67 69 69 68 69 74
15 15 15 16 19 21 25 28 33 38 43 43 39 32 29 28 26 24 36 47 44 42 47 51 50 45 46 61 72 66 55 48 45 46 48 45 41 36 33 32 32 31 32 33 30 27 29 27 25 24 23 21 20 20 20 18 17 13 16 21 29 55 53 25 35 47 40 45 48 44 38 32 46 56 53 63 69 66 66 64 66 68 68 71 68 65 68 76
6 6 6 6 7 9 12 17 24 32 40 44 44 40 33 30 27 26 40 52 51 49 49 50 52 48 45 54 71 78 72 62 53 46 45 47 48 44 39 35 33 33 36 39 37 33 32 33 33 27 24 26 24 24 25 27 28 22 26 34 34 55 67 39 40 62 55 47 46 41 34 34 47 56 56 62 66 67 68 66 67 69 71 72 69 66 69 75
4 4 4 4 4 4 4 6 10 18 29 40 45 44 39 34 30 30 42 53 57 57 53 53 54 52 48 48 61 78 84 81 72 61 52 48 48 49 48 47 45 43 42 43 43 39 36 42 48 41 33 31 30 31 30 28 38 37 30 36 38 48 60 51 48 57 54 50 50 44 34 30 40 53 63 70 67 64 67 68 69 71 71 72 71 70 71 74
4 4 4 4 4 4 4 3 3 5 13 25 36 41 41 40 32 30 40 51 60 62 56 52 53 54 54 50 53 65 77 87 89 84 76 65 59 56 57 60 62 62 60 58 58 54 47 48 51 47 42 39 36 38 34 32 50 63 50 37 35 39 47 48 44 41 43 46 45 43 39 34 37 47 60 73 74 69 69 69 70 72 72 73 73 72 73 76
5 4 4 4 4 4 4 4 4 3 4 8 18 27 39 49 41 29 34 47 58 64 60 51 48 54 59 58 58 58 64 79 88 87 90 88 80 75 74 75 74 74 73 74 78 76 68 68 66 54 46 45 45 45 43 39 48 69 74 59 48 45 41 43 49 48 45 43 39 42 44 43 45 49 55 66 75 77 77 76 74 75 75 75 77 79 79 81
5 5 5 4 4 4 4 4 4 4 4 3 5 11 28 49 51 35 30 40 54 61 60 53 48 52 57 61 67 63 61 78 86 80 84 91 91 89 90 90 88 86 83 82 89 88 80 85 89 76 62 54 52 53 54 49 42 52 65 63 63 66 56 46 47 49 48 47 43 42 43 46 50 53 56 63 74 80 81 82 80 78 78 76 75 76 76 80
5 5 4 4 4 4 3 4 3 3 4 3 3 3 12 35 54 47 31 31 48 57 57 57 53 48 50 58 72 72 68 79 84 79 83 86 84 86 88 91 93 96 96 91 90 90 87 88 94 93 82 68 61 58 57 57 50 45 47 51 59 68 69 66 61 55 54 55 53 46 41 45 50 54 58 63 73 83 86 87 86 82 81 78 77 77 77 77
5 4 4 4 4 4 3 3 3 3 3 3 4 3 3 18 45 58 41 26 39 52 54 56 56 49 45 49 62 70 72 75 71 75 88 87 78 80 83 87 90 94 100 97 90 92 93 90 94 99 92 81 77 70 63 64 66 60 52 48 48 50 55 64 67 67 69 72 73 64 48 48 56 58 58 57 61 70 76 80 81 80 78 76 76 75 69 62
5 4 4 4 4 4 4 3 3 4 4 3 4 4 4 8 29 58 54 28 27 45 52 53 54 53 48 43 48 58 69 80 75 72 85 90 85 85 83 82 87 92 99 100 96 96 94 92 95 97 95 91 87 83 76 72 73 74 69 59 56 58 56 55 57 60 64 68 76 78 68 64 68 65 58 53 50 53 54 54 55 55 53 50 49 47 41 37
4 4 5 5 4 4 4 4 4 4 4 5 4 4 5 4 15 47 61 38 21 34 47 48 47 52 52 45 46 52 59 76 82 75 81 91 91 89 87 84 86 94 100 101 99 96 93 96 99 96 97 96 90 89 88 80 73 73 73 71 73 76 72 69 70 68 66 63 61 68 74 76 81 77 66 58 55 55 51 48 46 42 38 36 34 34 33 31
4 5 6 5 6 6 5 5 5 5 5 5 5 6 6 3 7 34 61 50 23 23 38 42 41 47 52 49 48 52 54 62 71 71 74 81 84 89 96 95 91 91 95 97 99 98 94 96 97 96 100 98 93 95 92 87 86 83 76 73 77 79 77 78 81 78 81 79 66 61 66 69 73 77 75 71 69 68 65 60 56 50 45 42 39 39 39 35
5 6 6 7 7 6 5 6 7 8 8 7 8 9 8 5 3 25 60 60 30 19 29 36 37 40 47 51 50 52 56 57 61 65 67 70 73 80 91 96 97 96 94 91 92 95 96 94 91 94 101 99 96 96 88 82 87 87 83 80 79 79 76 74 75 76 80 83 79 76 75 72 73 75 80 84 82 79 77 71 64 57 51 46 42 45 49 48
5 6 8 9 8 7 7 7 6 7 7 7 8 9 12 14 7 19 56 65 37 20 22 27 31 32 37 47 51 53 58 60 61 63 65 67 69 71 74 77 83 91 96 97 93 92 94 95 94 98 102 100 100 99 92 85 82 79 80 84 83 81 78 72 68 70 70 67 73 82 82 83 89 89 87 88 87 84 81 73 66 60 54 47 43 50 63 71
5 7 9 9 10 9 7 6 6 7 8 8 9 8 10 17 14 20 54 68 42 21 20 22 23 25 27 36 45 51 57 62 64 65 65 67 70 71 70 68 70 75 82 88 92 96 97 94 96 99 98 96 97 97 94 92 89 85 82 82 81 78 77 73 66 69 72 67 70 80 84 87 95 96 91 88 87 85 81 74 68 61 56 50 45 50 65 82
6 8 9 10 11 8 7 12 11 6 7 12 17 14 9 9 13 26 55 69 46 22 20 21 20 20 20 24 33 43 51 58 64 66 68 69 71 73 75 76 79 80 77 75 78 86 94 96 98 101 98 96 94 90 93 99 99 96 90 86 85 80 77 75 69 72 80 78 76 82 88 91 94 95 93 91 88 87 84 78 73 65 59 53 47 45 53 68
7 8 10 11 10 7 10 17 19 22 37 49 45 30 14 10 20 40 62 71 52 27 20 22 23 22 20 19 22 29 40 50 57 62 67 70 73 76 79 82 86 87 85 80 76 75 79 86 94 99 100 101 98 92 94 99 97 96 93 89 88 87 86 85 79 75 77 77 79 84 88 93 95 95 96 94 90 90 89 84 80 74 65 57 52 48 46 51
7 8 11 11 10 9 11 22 42 64 86 94 71 38 23 29 45 62 74 76 60 37 23 22 23 24 24 22 20 20 26 34 43 50 56 64 69 72 75 81 86 89 88 85 83 80 77 78 81 86 91 97 99 99 101 98 92 93 97 92 88 88 90 92 90 85 80 75 75 76 80 89 97 99 99 97 92 92 91 88 85 80 72 64 59 55 49 46
8 9 11 11 11 8 11 38 79 99 99 99 78 40 31 54 73 79 81 78 66 48 31 24 24 25 25 25 23 20 19 21 29 37 44 53 60 62 67 72 77 85 92 94 94 89 85 85 83 80 80 81 85 92 100 100 95 94 98 99 95 91 89 89 88 87 85 80 75 72 73 80 91 97 99 98 95 93 91 90 89 87 81 71 63 59 55 50
9 9 10 12 11 7 9 34 78 101 98 99 89 55 44 67 83 84 82 78 69 55 38 26 23 24 25 26 25 22 19 18 20 26 34 43 47 51 62 70 72 79 86 92 97 94 88 90 92 89 83 77 75 80 86 93 98 97 98 100 99 94 90 88 87 87 89 88 83 81 80 82 87 94 99 100 100 97 95 92 92 92 88 78 66 58 52 48
11 9 10 12 11 9 8 18 53 88 98 100 101 84 71 75 80 82 85 82 74 62 43 29 25 23 22 24 25 24 21 19 17 19 26 35 40 42 49 58 65 72 76 76 81 82 78 78 82 82 76 67 64 65 68 77 85 87 91 98 100 98 96 94 93 94 96 96 94 92 92 90 90 94 98 101 101 100 100 98 96 96 93 86 76 65 56 50
Wind_Speed
29 29 29 29 28 28 28 27 27 27 26 25 24 23 22 22 22 22 21 21 21 21 21 21 21 22 23 24 24 25 26 26 27 27 27 28 28 27 28 28 28 28 28 28 27 26 25 23 23 23 23 23 22 22 21 21 20 20 19 17 15 16 18 19 22 24 25 25 21 21 20 20 20 20 21 21 23 23 24 25 25 24 25 26 26 25 26 25
28 27 27 27 27 27 27 27 27 27 27 26 25 23 23 22 22 21 21 21 20 20 20 20 20 21 21 22 22 23 23 24 25 25 25 25 25 25 26 26 26 27 27 26 25 24 23 22 21 22 22 22 22 22 21 21 20 19 18 16 15 17 19 20 23 24 24 23 21 20 20 20 20 19 19 19 22 23 23 24 24 25 26 26 26 26 25 25
26 26 26 26 25 26 26 26 26 26 27 27 26 24 23 23 22 22 22 21 21 20 20 19 19 19 20 21 21 21 22 22 23 24 24 24 24 23 24 24 24 25 25 24 23 23 22 21 20 21 21 21 22 22 21 21 20 20 18 16 17 18 19 20 22 23 22 21 19 19 19 19 19 18 18 17 20 22 22 24 24 25 26 26 26 26 25 25
25 25 25 24 24 24 24 25 25 26 26 27 27 26 25 24 23 23 23 22 21 21 20 20 19 19 19 20 20 21 21 22 22 22 22 22 23 22 22 23 23 23 23 23 22 22 22 20 20 21 21 22 22 22 22 21 21 20 18 17 18 18 19 20 21 22 21 19 18 17 17 18 17 18 17 16 17 18 20 23 25 26 26 26 26 25 24 25
24 24 24 24 23 23 23 24 24 25 25 26 27 27 26 25 24 24 24 23 22 22 21 20 19 19 19 19 20 20 21 23 22 22 22 22 22 22 22 22 22 23 22 22 22 22 22 21 21 21 22 23 22 22 22 21 21 20 18 19 18 18 20 21 21 21 21 19 18 16 15 16 15 16 16 15 17 18 18 21 23 25 26 26 25 24 24 24
23 23 23 23 23 23 23 23 23 24 25 25 26 27 28 27 26 26 25 24 23 23 22 21 20 20 20 20 20 20 21 22 22 22 22 22 22 22 22 22 22 22 22 22 22 22 22 22 22 22 23 24 22 23 23 21 21 20 20 19 19 21 22 22 22 22 21 18 17 16 14 14 14 16 16 16 18 19 20 22 23 24 24 23 22 21 22 22
23 22 22 22 22 22 22 23 23 23 24 25 25 26 28 29 28 27 27 26 25 24 23 22 21 22 22 22 22 21 22 22 21 21 22 22 22 22 22 23 23 23 23 23 22 22 22 22 23 23 24 25 24 25 25 23 23 22 21 19 20 22 23 24 23 21 20 19 18 16 15 15 15 16 17 17 18 19 21 22 22 22 21 20 19 19 21 21
22 22 21 21 21 21 21 22 23 23 24 24 25 26 27 28 29 28 27 27 27 26 25 24 23 23 24 24 24 24 24 23 21 21 21 21 21 21 22 23 23 23 23 23 23 23 23 23 24 24 25 27 26 27 26 24 25 24 21 21 22 23 24 25 23 20 20 19 18 16 16 16 16 17 17 18 18 18 19 20 20 19 18 18 18 19 20 21
21 21 21 21 20 20 21 21 22 23 24 25 25 26 26 27 28 29 28 28 28 27 26 25 25 24 25 26 26 26 26 25 24 22 22 22 22 22 22 23 23 23 23 23 23 23 24 25 25 26 28 28 27 28 27 27 28 25 23 24 23 24 25 25 22 20 20 20 19 17 17 17 17 17 17 17 17 18 19 19 19 18 17 18 18 19 20 21
20 20 20 20 20 20 20 20 21 22 24 25 25 25 26 27 27 28 28 28 28 28 27 26 26 26 27 27 27 27 26 26 26 25 24 23 23 23 23 23 23 24 23 23 23 24 25 26 26 27 29 28 28 29 28 29 29 26 26 25 24 24 25 25 22 20 20 20 19 18 18 19 17 16 17 17 18 18 18 19 19 18 18 18 19 20 20 21
20 20 20 20 20 20 20 20 20 21 22 24 25 25 26 26 27 27 27 28 27 27 27 26 26 27 27 27 27 27 26 25 26 26 26 25 24 24 24 24 24 24 24 24 24 25 25 26 26 27 29 29 30 30 29 30 29 26 27 26 24 25 26 25 23 21 21 20 20 20 19 19 17 16 18 17 17 18 17 18 19 18 19 19 20 21 20 22
20 20 20 20 20 19 19 20 20 20 21 22 24 24 25 26 26 26 26 27 26 26 26 25 26 26 27 27 27 26 26 26 25 26 26 26 26 25 25 24 24 24 24 24 25 25 25 26 26 28 29 28 29 30 30 30 29 28 28 27 26 26 26 26 24 22 22 21 21 20 19 19 17 16 17 16 16 17 16 17 18 18 19 19 20 20 20 22
19 20 20 20 19 19 19 19 19 20 20 21 22 23 24 24 25 26 25 26 26 25 25 25 25 25 25 26 26 25 26 26 25 25 24 24 25 25 25 24 24 25 25 25 24 25 25 25 26 27 27 27 29 30 29 29 29 29 28 28 27 26 27 27 25 24 23 22 21 20 20 20 19 18 17 16 16 17 16 16 16 16 17 18 19 20 20 21
19 19 19 19 19 19 19 19 19 20 20 20 20 21 22 23 24 25 25 25 25 25 25 24 24 24 25 25 25 25 26 25 24 23 23 23 24 24 24 24 24 24 24 24 24 24 25 25 26 26 27 28 29 28 28 29 29 29 29 29 28 28 29 28 26 25 23 23 22 22 22 20 22 21 18 18 18 18 18 16 15 14 16 18 20 21 21 21
19 19 19 19 19 19 19 19 19 19 20 19 19 19 20 21 23 24 25 24 24 24 24 24 24 24 25 25 24 25 26 25 23 23 22 23 23 23 24 24 24 24 23 23 23 24 24 25 25 26 27 27 28 28 29 29 29 30 29 30 29 29 30 28 26 25 25 26 25 24 22 21 25 22 19 20 19 19 18 16 14 15 17 19 21 21 21 20
19 19 19 19 19 19 19 19 19 19 19 19 18 18 18 20 21 23 24 24 24 24 24 24 24 24 25 25 24 25 25 24 23 23 23 23 23 23 23 23 23 23 23 23 23 23 24 24 25 26 27 27 28 28 29 29 30 30 28 30 31 30 31 28 27 28 28 27 26 25 24 26 27 22 20 22 20 20 19 16 15 17 19 20 21 22 21 21
20 19 19 19 19 19 19 19 19 19 19 18 17 17 17 18 20 21 22 23 23 23 23 23 23 24 25 24 23 24 24 22 22 23 23 23 23 23 23 23 22 22 22 22 22 22 23 23 24 25 26 27 27 28 29 29 29 29 28 30 31 30 32 30 29 30 29 28 28 27 27 29 28 22 22 23 22 22 20 19 18 19 21 21 22 22 21 22
20 20 20 19 19 19 19 19 19 18 18 18 17 16 17 18 19 20 21 22 23 23 23 23 23 24 25 24 23 23 22 22 22 22 23 23 23 23 22 22 22 21 21 21 21 21 21 22 23 24 25 26 27 27 26 27 28 27 27 29 30 30 31 31 32 31 30 31 30 29 28 28 27 24 24 24 23 24 23 21 20 21 23 23 24 23 22 23
21 21 20 20 20 20 20 19 19 18 18 18 17 17 17 18 19 20 20 21 22 22 23 23 23 25 24 23 23 23 22 21 21 22 22 23 23 22 22 22 21 20 20 19 20 20 20 21 22 23 24 24 25 25 26 28 28 27 28 30 30 30 30 32 34 32 31 32 31 30 28 27 27 26 25 26 25 26 25 23 22 23 24 25 25 24 24 24
22 22 22 21 21 21 21 20 20 19 18 18 17 18 18 18 19 19 19 21 22 22 22 22 23 24 24 23 23 22 21 21 21 22 22 22 22 21 21 21 20 19 19 19 19 18 19 20 21 22 23 24 25 26 28 29 28 28 29 29 30 30 30 32 35 32 31 31 30 30 29 27 28 26 26 27 28 27 26 24 24 25 25 25 26 25 25 25
23 23 23 22 22 21 22 21 20 20 19 18 17 18 19 19 19 18 19 21 22 21 22 23 23 24 24 23 22 22 21 21 21 21 22 22 21 21 20 20 20 19 18 18 18 18 19 19 20 22 24 25 26 27 28 27 27 28 28 29 30 29 30 34 35 33 32 30 30 30 29 27 27 26 26 28 29 28 27 26 26 26 25 25 26 26 25 25
23 23 22 22 22 22 23 23 21 21 20 19 18 19 20 20 19 18 19 21 21 21 21 23 24 25 24 22 22 22 21 21 21 21 21 21 21 21 20 20 20 19 18 17 17 18 18 19 21 23 24 24 24 25 26 26 27 27 27 28 28 28 31 33 33 32 31 30 30 30 28 27 26 26 27 27 28 28 28 28 27 25 24 25 25 25 25 25
23 22 22 22 22 22 23 24 23 22 21 20 19 19 20 21 20 19 19 20 21 20 20 22 24 25 24 22 22 21 21 21 21 21 20 20 21 21 21 21 21 19 18 17 17 18 19 20 22 23 23 23 24 24 25 26 26 26 26 26 26 28 29 29 30 32 31 29 30 28 26 26 25 26 27 26 27 27 26 26 25 23 23 25 25 25 24 24
22 22 21 21 21 21 23 24 24 23 22 21 20 20 21 21 20 20 20 19 21 21 19 20 23 23 22 21 21 21 21 21 21 22 21 21 20 20 21 21 20 19 18 17 17 18 21 22 21 21 21 22 23 23 24 24 24 24 24 24 25 26 26 27 30 30 29 29 28 25 23 25 25 26 26 25 25 24 22 21 20 21 23 24 24 23 23 23
20 20 20 20 20 21 21 23 24 24 24 23 22 22 22 22 20 20 21 20 21 22 20 20 22 22 21 20 20 21 21 21 21 22 22 21 21 20 20 20 20 19 18 18 18 19 21 20 19 19 19 20 21 22 22 22 22 22 21 21 23 24 26 28 28 26 25 26 25 21 20 22 24 23 22 22 21 19 17 17 17 19 21 21 21 21 22 21
20 20 21 21 21 20 21 23 24 24 25 24 24 24 24 24 21 20 21 21 21 22 21 20 21 21 20 20 20 21 21 21 22 22 22 22 21 21 20 20 20 20 19 18 19 20 20 18 17 18 18 19 19 19 20 20 19 19 18 19 21 23 24 25 25 24 23 22 21 19 18 18 21 22 20 19 17 16 16 16 16 17 18 18 19 20 19 17
23 23 23 23 23 22 22 22 24 25 25 24 25 25 25 25 23 21 21 21 22 22 22 21 20 20 20 20 20 22 22 22 22 22 22 22 21 20 19 19 19 19 19 19 20 20 18 16 17 17 17 17 17 17 17 17 17 17 17 18 20 21 22 23 24 22 20 19 18 18 19 18 19 20 18 17 16 16 17 16 16 17 16 17 18 19 17 16
25 25 25 26 25 25 24 24 24 25 25 25 25 26 27 26 25 23 22 22 21 21 22 22 21 20 20 20 21 23 22 22 23 24 24 23 22 21 21 19 19 19 20 20 19 19 18 17 17 17 16 16 16 17 17 17 17 17 17 19 20 20 21 22 22 20 18 18 16 17 20 19 18 20 17 16 16 16 17 17 17 18 17 18 19 19 19 19
27 26 26 27 27 26 26 26 26 25 25 26 26 26 27 28 27 25 25 23 20 20 21 22 22 21 20 20 21 22 23 24 24 24 25 24 23 22 21 21 21 21 20 20 20 20 20 19 18 17 17 17 17 17 17 18 18 17 17 18 19 19 20 20 19 17 17 18 17 17 19 19 19 20 18 17 18 19 20 19 19 20 20 20 20 20 20 20
26 26 26 27 27 27 26 27 27 26 26 26 27 27 27 28 28 27 28 24 20 20 21 21 21 21 21 21 21 22 23 24 25 25 26 25 23 22 22 22 22 21 20 21 21 20 19 19 18 17 17 17 18 18 18 18 17 18 18 18 18 18 18 19 18 17 17 18 18 17 18 21 20 20 20 20 20 21 21 20 20 21 21 21 21 21 21 20
24 25 25 25 26 27 27 27 27 27 27 27 28 28 28 29 29 30 29 23 21 22 22 22 22 20 21 22 23 23 23 24 25 26 26 24 23 24 23 23 22 21 21 21 21 20 19 18 17 17 17 16 17 17 17 17 16 17 17 17 17 17 17 17 17 19 19 18 18 16 19 22 20 20 22 21 20 20 20 21 22 21 22 22 21 20 20 18
23 24 24 23 24 26 27 27 27 28 29 29 29 29 30 31 32 31 26 21 23 25 22 22 22 21 21 22 23 24 24 24 25 26 26 24 23 23 23 23 21 20 20 20 20 19 18 17 16 16 17 16 16 16 16 16 16 17 16 16 16 15 17 18 17 18 19 19 19 18 20 22 22 23 24 22 22 22 22 23 24 24 23 23 21 20 19 17
22 23 23 23 23 24 26 27 27 28 29 30 32 31 32 34 33 29 23 22 26 27 23 22 22 22 22 22 24 25 25 25 25 26 27 26 25 23 23 23 22 21 20 20 21 19 18 18 17 17 18 17 17 16 16 16 15 15 15 16 15 14 16 18 18 18 19 21 21 19 20 21 24 27 25 23 25 26 26 26 26 26 26 24 23 22 20 18
22 23 24 23 23 23 25 26 26 27 29 31 33 33 35 37 32 26 23 24 28 28 25 24 23 23 22 22 24 25 25 26 26 26 27 26 26 26 25 25 23 23 22 22 22 21 20 19 19 19 19 18 17 17 16 15 15 15 15 16 16 16 16 17 18 19 19 20 20 20 22 23 26 28 26 25 26 27 29 29 29 29 28 26 25 23 22 21
24 24 25 25 25 24 25 26 26 27 29 32 34 36 38 36 30 26 25 26 28 29 27 25 24 24 24 24 24 25 25 25 26 27 27 27 26 26 25 25 24 24 23 22 22 22 21 19 20 20 20 19 18 17 18 16 16 17 18 18 19 19 19 18 19 19 18 18 20 21 24 25 26 26 25 26 27 28 30 31 31 31 30 29 28 26 24 24
24 24 25 25 26 26 26 27 27 28 29 31 34 38 38 34 29 28 28 28 29 29 27 26 26 25 25 25 25 25 25 25 26 26 27 27 26 25 25 25 24 24 23 22 21 21 21 20 21 21 20 20 19 19 19 18 18 19 19 20 20 19 19 19 19 20 20 20 22 22 23 25 26 27 26 27 28 29 31 32 32 32 32 31 30 28 27 26
24 24 25 26 26 26 27 28 28 29 31 32 34 37 36 32 31 31 31 30 30 29 27 27 28 27 27 26 26 26 26 26 26 26 25 25 26 25 24 24 24 24 23 22 20 20 20 19 20 22 22 23 22 22 22 21 21 21 20 21 19 18 21 20 19 21 21 22 23 22 23 24 24 26 29 30 30 30 31 32 33 33 33 32 31 31 30 29
24 25 26 27 27 27 28 29 30 31 32 34 35 35 33 32 33 33 32 33 32 31 29 29 30 29 28 27 27 28 27 27 27 26 25 25 24 24 23 23 24 23 23 23 22 22 21 20 20 23 25 25 24 24 24 25 25 23 23 23 19 18 21 22 22 22 21 21 22 22 23 23 23 25 28 30 32 33 33 33 33 34 34 34 33 33 32 32
25 26 27 28 28 28 28 29 30 32 34 35 35 35 34 33 33 34 34 34 35 33 32 33 33 31 30 30 29 29 28 28 28 27 27 27 26 25 24 24 23 23 23 24 24 23 23 23 22 23 25 26 27 27 26 26 27 27 26 25 23 22 22 21 22 22 21 20 21 23 23 22 24 25 25 26 29 31 33 34 34 34 34 34 34 34 34 34
26 27 27 28 28 29 29 30 31 33 34 35 35 36 35 34 34 34 35 36 36 37 36 35 34 33 32 32 31 30 30 30 30 29 29 29 28 27 26 26 25 25 24 25 26 25 25 26 25 24 25 26 27 28 28 27 27 27 28 27 27 27 25 24 23 21 20 19 19 20 21 22 22 22 22 23 25 27 29 32 34 34 35 35 35 35 35 35
26 27 27 27 28 29 29 30 31 33 34 35 36 37 37 36 35 36 37 38 38 39 39 36 35 35 34 33 32 32 31 30 31 30 30 30 30 30 29 28 28 27 26 27 28 27 28 27 27 26 24 24 27 28 29 29 27 26 26 25 25 25 25 26 26 25 24 22 19 18 18 20 19 18 20 21 22 24 26 28 30 31 32 32 32 32 32 31
25 26 26 26 27 27 27 27 28 31 34 36 36 37 37 38 37 37 39 39 40 41 40 38 37 36 34 34 34 33 32 31 31 30 30 30 30 31 30 30 29 29 30 30 30 30 29 29 29 29 26 27 27 26 26 28 28 28 28 26 25 24 25 25 24 24 25 24 24 21 19 20 19 18 19 20 20 22 23 24 25 27 27 27 27 28 28 28
24 23 24 25 25 25 24 23 23 25 30 34 35 35 36 38 38 38 39 40 41 41 40 39 38 37 36 35 34 33 33 32 31 30 30 30 30 30 30 31 31 31 31 32 32 32 32 31 31 30 29 29 28 26 27 27 28 30 32 32 31 29 28 27 24 24 23 22 23 23 23 23 21 19 18 19 20 21 21 22 23 24 24 24 24 24 24 24
24 23 23 23 23 22 23 21 21 22 24 28 31 31 32 36 39 38 39 40 41 40 39 39 38 37 36 35 35 35 34 32 31 31 30 30 29 29 29 29 30 31 32 32 33 33 34 33 32 31 32 31 29 29 30 29 30 31 31 33 34 33 32 31 28 27 25 23 22 21 23 24 22 20 19 19 19 19 19 20 21 22 22 21 21 21 21 21
24 24 24 24 23 22 22 22 22 22 22 24 26 27 28 31 36 38 38 39 40 38 38 38 37 36 36 36 35 35 34 33 32 31 30 30 29 29 28 27 28 28 29 31 32 32 34 35 34 34 33 31 28 29 30 29 29 30 30 32 34 34 34 33 31 28 28 28 25 22 23 22 19 19 20 20 19 19 19 20 21 21 21 21 20 19 19 18
25 24 24 24 24 23 23 23 22 22 21 21 23 24 25 28 33 37 37 38 39 38 36 35 34 34 35 36 36 36 35 34 33 32 32 31 30 29 28 28 27 27 27 27 28 28 31 34 36 37 37 34 31 31 30 28 27 27 29 31 32 33 33 32 31 28 27 28 27 25 25 23 20 19 19 19 19 19 20 21 20 20 21 21 21 20 19 19
25 24 24 25 25 24 21 20 18 17 18 18 19 20 23 27 31 34 35 36 37 37 35 33 32 31 32 34 35 35 35 35 34 33 33 32 31 30 29 28 27 27 26 26 26 25 25 28 30 31 33 35 35 33 31 29 28 28 28 29 31 32 32 32 31 28 27 26 25 26 26 25 23 22 21 20 20 20 20 20 20 20 20 21 22 22 21 20
26 26 26 27 26 21 15 11 10 10 13 15 16 18 22 26 29 30 31 33 34 35 35 33 31 30 29 31 33 34 35 35 35 34 33 33 32 31 31 30 29 28 28 27 27 26 25 25 24 23 23 27 31 34 35 33 32 32 31 30 30 30 30 31 31 30 30 28 27 27 26 25 26 25 25 24 23 22 22 22 21 21 20 21 23 23 23 23
28 27 27 28 25 17 8 3 7 5 8 12 14 17 21 23 25 27 27 29 31 32 33 32 31 30 29 29 30 31 33 34 35 35 34 33 33 33 32 31 31 30 29 28 27 26 25 25 23 22 22 21 22 26 33 37 37 36 35 34 33 32 32 32 32 32 33 31 31 30 28 27 27 27 27 27 26 25 25 25 24 23 22 23 24 25 25 26
29 27 28 28 23 14 6 5 8 2 1 9 12 14 18 20 21 23 23 25 27 28 30 30 30 30 29 29 29 29 31 33 33 34 34 33 33 33 33 32 32 30 29 28 27 25 25 24 23 23 24 24 21 21 25 32 37 39 38 38 37 36 35 34 34 34 34 34 33 33 32 31 30 29 29 29 29 28 27 27 26 26 26 26 26 27 28 28
28 28 28 28 23 16 8 4 6 4 9 8 9 11 14 16 17 19 19 21 23 24 26 27 28 28 28 28 28 28 29 30 31 33 33 33 33 33 33 32 32 31 30 30 28 27 26 25 24 23 24 25 25 24 23 25 30 34 37 40 41 41 40 38 37 37 36 36 36 35 35 35 34 33 32 32 32 31 30 30 29 29 29 30 30 30 31 31
28 28 28 28 23 16 10 2 3 2 10 12 8 9 12 12 13 15 16 17 19 21 22 24 25 26 26 27 27 27 28 28 29 31 32 32 32 33 33 33 33 32 32 32 30 29 27 26 25 25 26 26 26 27 27 26 26 27 27 30 34 38 39 39 39 39 39 39 40 39 39 38 37 37 36 35 35 34 33 33 32 33 33 33 34 34 34 35
Wind_Direction
288 287 285 283 281 278 276 274 271 268 266 266 267 268 269 268 268 268 268 268 269 268 267 266 264 262 260 258 256 255 253 251 249 249 248 248 247 247 247 248 248 248 248 248 248 247 247 246 246 246 247 246 245 243 242 241 240 240 239 237 232 229 230 232 237 238 242 249 246 242 242 241 243 243 243 245 246 246 248 251 251 250 252 255 257 257 260 266
288 287 286 284 281 278 275 273 270 267 264 263 263 264 265 266 266 267 267 268 268 268 267 265 263 261 259 257 255 254 252 249 248 247 246 246 246 245 246 246 246 246 247 247 246 245 244 242 242 243 244 244 243 243 242 240 240 239 236 232 225 224 228 231 238 242 245 247 245 243 242 242 242 243 243 244 248 250 248 250 251 251 252 254 257 260 265 272
289 288 287 285 282 279 276 273 270 267 263 260 259 260 261 262 263 264 265 266 266 266 266 264 262 259 257 255 253 252 250 249 246 245 245 244 243 243 243 243 243 244 245 245 244 244 243 241 240 241 242 242 242 241 240 239 238 237 232 225 222 223 227 231 238 243 245 245 245 243 242 243 242 242 243 242 250 255 253 251 249 249 250 252 256 261 269 276
290 289 288 286 283 281 278 274 270 268 265 261 258 256 257 259 260 261 262 263 264 264 263 262 260 257 255 253 252 250 250 248 246 244 244 243 243 242 242 242 242 243 243 242 242 241 241 239 238 238 239 240 239 239 238 236 236 235 230 224 222 223 224 229 236 241 244 244 243 242 243 245 245 246 246 243 249 253 253 253 250 248 249 251 257 266 274 279
290 289 288 286 284 281 279 276 273 269 267 264 260 256 254 255 256 257 259 260 261 261 260 258 256 254 252 251 250 249 249 249 246 245 243 243 243 242 242 241 241 241 241 241 240 240 239 237 236 236 237 238 238 238 237 234 235 234 229 225 222 222 223 228 234 238 242 241 241 241 242 247 248 248 247 241 241 241 240 247 251 251 253 257 265 273 278 279
289 289 287 286 283 281 279 277 275 272 269 266 264 259 255 253 253 253 255 257 258 258 258 256 253 252 250 249 248 246 248 249 247 245 244 242 242 242 241 241 241 241 241 240 240 239 239 237 236 236 237 239 237 237 236 232 232 230 227 224 219 221 226 229 232 235 239 240 240 239 239 242 244 245 244 239 239 240 239 245 252 255 259 265 272 275 274 274
288 288 287 285 283 281 279 277 275 274 271 268 266 262 258 254 252 252 252 253 255 256 256 255 253 252 252 250 249 246 246 247 246 245 245 243 242 242 242 242 241 240 240 240 240 240 239 238 236 236 236 237 235 236 236 230 228 227 225 222 220 223 227 230 231 232 236 239 238 238 237 237 239 241 242 240 240 243 246 250 254 258 263 267 270 268 267 269
287 287 287 285 283 281 279 278 276 274 272 270 267 264 260 256 253 252 251 252 253 254 254 254 253 253 254 253 252 249 246 245 244 244 245 245 245 244 243 243 242 241 241 240 240 240 239 238 237 236 235 236 234 235 235 231 229 226 222 221 221 222 226 231 231 228 232 237 237 235 236 235 235 238 240 243 244 245 249 253 255 258 262 263 263 261 263 266
285 285 286 285 283 282 280 279 277 275 273 272 269 265 262 259 254 252 252 252 252 253 254 253 252 252 254 255 256 254 250 246 244 242 242 244 245 245 245 245 244 243 242 241 240 240 239 238 237 235 235 236 234 235 234 232 230 225 221 221 219 220 226 231 229 226 228 233 236 233 234 235 232 236 241 243 245 246 249 253 255 257 258 259 259 259 262 265
284 284 284 284 283 282 281 281 280 278 276 273 271 268 263 260 256 253 251 252 252 252 253 253 253 252 254 256 257 256 254 249 245 242 241 241 242 243 245 245 245 245 243 243 242 240 240 238 237 236 237 236 234 235 233 232 232 225 222 221 218 220 227 231 228 225 227 230 234 231 232 234 231 235 241 240 240 243 247 252 254 256 257 257 258 258 262 265
282 283 283 282 282 282 282 283 283 283 280 276 272 269 265 260 257 254 251 251 252 252 252 253 253 253 254 255 256 256 255 252 247 243 241 240 241 242 243 244 245 245 244 243 243 242 242 241 240 239 239 237 235 236 234 234 234 228 226 223 219 220 226 230 228 226 227 228 230 231 232 235 233 234 238 236 238 242 245 250 252 254 255 255 257 258 260 263
281 281 282 282 282 281 281 283 285 286 285 281 275 270 267 261 257 254 251 250 250 251 252 252 252 252 253 254 254 253 252 249 247 244 242 241 242 242 243 243 243 244 244 244 244 244 244 243 242 240 240 239 238 237 236 235 233 229 227 224 221 220 225 229 228 226 227 228 229 232 235 238 237 237 238 237 239 242 243 246 248 250 252 251 254 255 255 258
279 280 280 281 281 281 281 282 284 287 290 287 280 273 268 263 257 253 250 249 248 250 251 252 252 252 252 252 252 251 249 247 245 244 243 242 242 242 242 242 242 243 244 244 244 245 245 244 242 242 241 240 239 238 237 236 234 231 228 226 223 221 225 229 228 227 227 229 230 231 233 239 241 237 237 238 238 240 240 242 243 243 245 245 248 249 249 254
277 278 279 279 279 280 281 281 282 286 291 291 287 279 270 264 257 252 249 248 247 248 250 252 252 252 252 251 250 249 248 247 245 243 242 241 241 240 241 241 242 242 243 245 246 246 245 243 242 241 239 238 238 238 237 236 233 231 228 226 224 222 225 227 228 228 227 228 229 229 230 235 241 237 233 235 234 237 239 239 239 236 236 237 241 244 247 253
275 276 276 277 278 278 279 280 281 283 288 291 290 284 274 264 257 251 248 247 247 247 249 250 251 251 252 251 249 248 247 246 244 242 241 240 239 239 240 241 242 243 244 246 246 246 245 243 241 238 236 235 236 235 236 234 232 230 227 225 224 222 226 227 227 229 228 227 226 228 228 229 237 235 230 233 232 234 237 236 234 231 231 234 238 242 247 253
272 273 273 275 275 276 277 279 280 281 284 287 290 287 277 266 257 251 247 246 247 246 247 249 250 251 252 251 248 247 247 245 243 241 240 239 239 239 239 240 241 243 245 246 246 245 244 242 240 238 235 233 231 232 233 233 231 229 225 224 223 221 226 228 227 229 230 229 228 228 228 229 235 234 232 235 234 234 236 233 229 228 231 235 238 243 248 253
269 270 270 272 273 274 275 276 278 280 281 283 285 285 278 268 259 252 248 246 246 246 246 247 249 250 251 250 248 248 248 246 244 241 240 240 239 238 238 239 239 241 244 246 245 244 242 240 238 237 235 232 229 228 230 232 230 228 224 224 223 220 224 228 227 229 231 232 231 229 229 232 236 235 235 237 236 237 237 233 229 228 231 234 238 244 248 253
266 267 267 269 270 272 273 274 275 278 279 279 279 279 275 269 261 254 249 247 247 246 246 246 248 249 250 249 249 249 248 245 244 242 240 240 239 238 237 237 237 239 242 244 243 241 239 237 235 235 233 231 229 227 228 230 229 226 223 223 222 220 223 228 229 228 230 233 234 232 231 234 237 235 236 238 237 239 239 236 233 231 232 235 239 244 249 254
265 265 265 266 267 269 271 272 272 274 277 276 274 272 270 267 263 256 250 249 248 248 248 248 248 250 250 249 249 249 247 245 243 242 240 239 238 237 236 236 235 237 239 240 239 237 235 234 232 232 231 229 227 224 224 225 224 220 218 219 219 218 220 226 229 228 229 233 235 235 234 234 236 234 235 238 239 240 242 239 237 237 237 238 241 244 250 254
264 264 264 263 264 265 267 269 270 270 273 274 271 267 266 265 263 259 254 251 250 249 249 249 249 250 250 249 248 248 247 244 242 242 239 237 237 235 234 233 233 235 236 237 237 235 233 231 229 228 226 225 223 222 223 224 221 217 216 216 216 216 218 224 228 227 228 232 235 237 236 235 235 234 234 239 241 242 243 241 238 239 240 241 243 245 249 252
264 263 263 262 261 262 264 266 267 267 268 270 269 266 264 263 262 259 256 254 251 248 249 249 249 250 249 247 248 247 245 243 241 240 237 235 235 233 231 230 229 229 230 232 233 232 231 229 227 225 225 224 223 223 224 224 222 218 216 215 216 215 217 223 226 227 228 231 235 237 237 236 236 237 236 238 240 241 242 242 240 240 240 241 242 244 246 248
263 263 262 261 260 259 261 263 265 265 264 265 266 265 263 261 260 258 256 256 253 248 248 249 249 250 248 247 247 246 244 243 240 237 235 233 232 230 227 226 226 225 226 228 228 228 228 226 224 225 225 225 225 224 225 225 224 221 217 216 216 215 219 224 227 229 230 230 234 237 237 238 239 239 238 237 239 240 241 243 243 242 239 237 237 239 242 243
263 262 262 261 260 259 259 261 262 263 263 262 262 263 263 261 258 256 255 257 257 250 247 249 249 249 248 246 246 245 243 241 237 233 232 231 231 229 226 224 223 223 223 224 225 224 223 223 224 225 224 224 224 224 225 226 226 224 220 217 217 219 221 226 229 231 232 232 234 237 239 241 241 240 240 239 241 242 243 245 245 241 234 230 230 232 236 239
264 263 263 262 261 259 259 260 260 261 261 260 259 259 262 261 258 255 253 254 257 253 247 248 250 249 247 245 245 243 240 237 233 230 229 229 229 228 227 225 223 222 221 222 222 221 223 226 226 227 227 225 225 224 224 226 227 226 224 220 220 222 222 226 231 232 234 236 237 238 241 242 241 241 242 241 242 243 243 243 239 233 229 226 226 229 232 237
264 264 264 264 262 261 259 260 260 260 259 258 257 256 259 260 258 255 252 250 254 254 248 246 249 249 246 243 241 239 237 233 230 228 227 227 227 227 227 226 224 222 220 219 219 221 225 228 227 228 229 228 226 225 224 225 227 227 226 223 224 225 224 229 235 236 237 241 240 236 237 242 243 242 241 239 238 237 234 230 225 225 227 226 225 228 233 239
266 265 266 265 265 264 261 260 261 260 259 257 256 255 256 258 257 255 252 248 250 252 249 246 247 247 244 239 236 235 233 230 227 227 226 226 227 228 228 225 223 221 218 217 218 222 226 227 227 228 229 229 228 227 225 224 225 226 223 221 224 226 227 232 235 235 236 241 241 231 225 233 239 238 236 234 230 224 220 217 217 220 224 224 223 227 233 238
268 267 267 266 266 265 264 262 260 260 259 257 255 254 253 255 255 254 253 249 247 248 248 246 245 244 242 238 235 233 230 227 225 225 224 225 226 227 227 225 223 222 218 217 221 224 226 226 227 228 229 229 228 225 223 220 221 224 219 217 222 225 228 231 233 234 231 232 233 223 216 221 232 237 235 229 224 219 217 213 212 217 219 217 217 219 224 229
269 268 268 267 266 265 264 263 261 259 259 257 255 252 252 253 253 252 252 251 248 246 245 245 243 242 240 237 233 231 230 227 224 223 223 224 223 223 223 221 220 220 219 218 220 222 223 224 225 226 225 225 223 221 219 215 215 218 215 215 220 222 225 229 230 231 229 228 225 219 217 216 224 235 233 227 226 221 219 217 211 212 213 209 208 211 218 224
270 269 268 267 266 264 262 261 261 259 258 257 255 252 251 251 251 250 248 248 248 246 244 243 242 240 237 235 233 231 229 228 225 224 224 224 224 224 223 221 219 219 218 218 220 221 221 222 222 222 221 219 218 218 217 214 213 214 213 214 217 219 222 225 225 228 229 227 223 221 218 211 216 229 227 226 227 220 217 219 214 211 210 207 207 212 220 224
269 269 267 266 266 264 261 259 259 258 258 257 255 253 250 249 249 247 246 245 246 246 244 241 240 238 235 234 233 231 229 228 227 227 227 225 223 223 222 223 223 221 220 222 225 226 225 225 224 222 222 219 218 217 217 215 213 214 213 214 217 219 220 222 223 227 228 226 225 224 218 211 214 224 223 225 229 223 218 221 220 217 214 211 212 217 222 223
270 269 267 266 265 263 261 258 256 255 255 254 254 252 250 248 246 244 244 243 244 245 242 239 237 234 232 231 231 231 230 229 228 228 229 226 224 224 222 224 225 224 224 226 228 230 229 229 229 228 226 222 219 218 218 217 215 216 216 216 220 221 223 224 224 226 227 227 226 221 218 216 215 222 224 225 230 227 222 223 223 219 215 214 217 220 221 223
274 272 269 267 265 264 262 259 255 252 251 251 251 250 248 247 245 244 243 242 242 242 239 238 236 232 230 228 228 230 230 229 229 229 229 226 225 225 224 225 224 224 227 230 231 232 233 233 232 232 230 225 221 220 220 219 216 218 218 217 219 222 224 223 224 229 229 229 227 221 221 220 219 225 228 223 222 224 224 223 222 219 216 218 222 221 221 226
277 276 274 271 268 265 263 260 256 252 249 248 249 248 247 245 244 243 241 238 241 241 238 236 235 232 229 227 227 228 229 230 229 229 230 227 225 223 222 222 220 218 220 226 230 231 233 234 231 230 229 226 221 218 222 223 221 222 221 219 218 218 222 223 225 230 230 230 231 230 227 224 223 228 231 224 218 219 223 224 223 222 221 223 225 225 226 230
281 280 278 276 272 268 265 263 259 253 250 248 247 246 245 245 244 241 237 235 240 241 237 234 233 231 228 225 225 226 227 229 229 230 231 228 226 224 224 223 220 217 217 221 225 227 229 232 233 233 230 227 224 220 221 222 223 224 220 218 217 216 222 225 224 229 232 232 234 235 233 229 228 230 231 228 223 220 222 224 225 226 227 229 229 229 231 234
285 283 281 278 275 271 267 264 261 256 251 248 247 246 245 246 246 240 233 232 236 239 236 234 232 229 226 225 225 225 225 228 228 230 231 231 229 227 227 227 226 224 222 222 226 228 228 229 231 234 233 230 228 226 223 220 223 227 224 221 219 218 224 227 226 230 233 234 236 236 235 234 234 234 232 229 227 225 225 227 228 230 232 233 234 233 234 236
287 285 282 279 277 273 269 265 261 257 253 250 248 247 246 247 245 239 232 228 232 236 234 233 231 228 225 224 225 225 226 228 229 228 229 231 231 229 228 229 229 229 227 225 227 230 232 233 234 234 235 233 230 229 228 221 221 229 234 232 228 227 231 234 237 239 238 238 240 239 239 239 239 239 236 232 229 229 229 230 231 233 235 237 237 238 238 240
290 287 284 281 277 274 270 265 261 257 254 251 249 248 247 245 243 239 232 227 228 231 230 229 229 226 224 223 224 225 224 227 230 230 229 229 229 228 228 231 231 231 231 228 225 226 227 231 236 234 233 233 231 231 233 227 221 223 233 239 237 239 240 236 238 243 243 242 243 242 242 243 242 241 239 235 233 233 233 234 235 236 238 238 239 240 240 242
293 290 286 282 279 274 270 266 262 258 254 251 250 249 247 244 241 238 234 228 225 227 226 226 226 224 223 222 222 223 223 225 228 230 231 230 228 226 227 231 233 233 233 230 227 226 222 223 231 233 232 232 231 232 234 235 230 223 228 235 234 239 245 243 241 244 248 249 249 248 247 247 244 241 238 236 235 235 235 237 238 239 241 241 242 243 243 244
295 292 288 285 281 276 271 266 262 258 254 252 251 249 245 242 239 236 234 229 225 224 223 224 225 223 222 222 222 222 222 223 226 228 229 230 229 227 226 229 231 232 234 232 230 230 225 222 227 232 231 230 231 232 233 238 239 233 230 232 231 232 239 245 246 246 249 251 251 252 251 247 242 239 238 236 235 236 237 239 242 243 245 247 248 249 250 251
298 295 291 287 283 279 274 268 263 258 255 252 249 247 243 240 237 234 232 230 225 223 223 222 223 222 222 222 223 223 222 223 225 226 228 230 230 229 228 228 230 230 232 234 233 232 228 226 227 233 234 232 233 233 231 233 237 238 237 235 235 235 236 240 244 242 239 240 245 249 249 244 239 238 238 236 235 236 237 240 243 245 248 250 252 253 255 256
302 299 295 292 287 283 277 271 265 259 255 251 247 243 239 235 233 230 229 228 226 223 223 222 221 222 222 221 223 224 223 223 226 226 228 231 232 232 230 229 230 229 230 233 233 231 231 228 228 233 235 232 233 234 233 231 232 234 237 238 237 238 239 241 244 242 238 236 238 242 245 245 240 235 235 234 234 234 236 238 241 244 247 249 251 253 254 254
309 306 303 300 295 289 282 275 268 260 253 248 245 242 237 233 230 228 227 226 225 223 222 221 220 221 221 221 223 224 223 223 225 226 228 231 232 233 233 232 230 229 229 231 232 232 232 230 228 231 231 230 233 235 234 235 233 229 231 233 232 233 236 238 240 243 242 240 239 239 243 245 240 234 233 232 232 234 235 238 240 242 245 246 248 250 251 251
317 314 310 307 300 291 284 279 274 265 255 248 244 241 237 231 227 226 225 225 225 224 222 220 220 219 220 220 222 224 225 224 225 226 228 231 232 233 235 234 232 230 229 231 231 232 232 230 230 232 232 233 236 237 237 238 236 231 230 230 230 232 235 236 236 239 242 240 239 239 241 242 240 237 237 234 233 234 235 236 238 240 242 243 245 248 250 251
325 322 319 314 305 291 281 277 276 272 261 252 245 241 236 230 225 223 223 223 224 224 223 221 220 219 219 220 222 223 225 226 226 227 229 231 233 235 237 238 236 234 233 232 232 233 232 231 231 232 234 236 238 239 240 240 237 236 235 234 233 234 237 239 239 240 241 239 237 238 241 242 240 237 238 237 235 234 232 231 233 236 239 241 243 246 249 251
333 330 325 320 312 297 282 274 272 270 263 253 246 241 236 229 223 221 221 221 222 223 223 222 220 219 219 220 221 224 225 226 227 229 230 231 233 235 237 238 238 238 238 236 235 235 234 234 232 230 230 231 234 238 240 242 241 241 240 237 235 237 238 239 241 241 242 241 238 236 239 240 236 232 232 234 234 232 229 230 232 235 239 242 243 244 246 247
338 334 329 324 318 306 290 278 270 264 256 248 244 239 234 227 221 219 219 219 220 221 222 221 220 219 218 219 221 223 225 227 228 229 231 231 233 235 237 238 239 240 241 241 241 239 238 236 235 233 231 228 230 235 239 241 242 243 243 240 238 238 237 238 240 240 242 242 239 235 237 240 238 234 234 235 235 233 231 232 235 239 242 243 242 241 241 240
343 340 336 331 324 314 299 283 268 253 243 241 240 235 229 223 219 217 217 218 219 220 220 220 219 219 218 219 221 223 225 228 229 230 232 233 234 236 239 240 241 242 244 245 245 243 241 239 236 235 235 233 234 236 237 236 237 238 240 240 240 239 238 238 239 237 237 238 238 235 235 238 240 240 239 238 236 235 234 235 240 244 244 243 242 240 240 239
350 348 344 339 333 325 310 282 247 230 236 237 231 226 220 216 215 215 216 217 219 219 219 219 219 218 219 220 221 223 225 228 230 231 233 235 235 237 239 241 242 243 244 245 245 244 243 243 240 238 238 239 240 240 237 235 235 237 237 237 238 239 239 238 239 238 237 236 237 237 235 236 241 243 242 240 237 237 238 239 243 245 243 242 241 240 240 240
357 354 351 348 344 341 333 233 189 209 247 231 216 214 212 208 209 211 213 216 218 219 220 220 220 220 221 222 222 223 224 227 230 233 234 236 237 239 240 242 243 244 246 246 247 247 247 246 246 244 243 245 245 244 241 237 235 236 236 235 235 236 237 238 238 239 240 239 239 240 239 238 240 242 241 240 239 239 240 241 243 243 242 240 239 239 240 241
1 359 358 356 355 3 24 167 170 108 134 193 196 202 204 203 205 207 210 214 217 219 220 221 222 222 223 225 225 225 226 227 229 232 235 237 238 240 242 244 244 246 249 250 251 251 251 251 250 249 249 250 250 251 249 244 239 237 237 236 235 235 236 237 238 240 242 243 243 243 243 241 241 240 239 240 241 242 243 243 242 241 241 240 238 238 239 240
4 5 6 6 7 16 34 168 190 66 73 133 179 194 195 200 204 205 209 214 216 218 219 221 222 223 224 226 227 227 227 228 229 231 234 236 238 241 243 245 247 248 250 251 253 254 254 254 254 254 253 253 253 254 254 250 245 241 239 239 240 239 237 237 238 239 240 243 244 245 245 244 243 242 240 240 242 243 244 244 243 242 242 242 242 241 241 241
8 10 13 17 19 23 32 64 202 63 64 82 121 172 189 197 203 205 209 213 217 218 217 218 221 222 223 225 227 228 228 229 230 231 234 237 239 241 243 245 248 250 251 252 254 255 256 256 256 257 256 254 253 255 255 255 253 248 244 244 245 244 243 242 241 241 241 241 242 244 245 245 244 243 241 241 242 243 243 244 245 245 245 246 246 247 246 246